69355 UMKK-ULMM

Flight info

Callsign 69355
Flight time 2h 43m
Altitude 35000
Route PELUG DCT OTVOV DCT KEDUX DCT PIVAX DCT NEKET DCT PIRUX DCT PISIM DCT PIDIN DCT ARANS/K0841F350 DCT PISIS DCT AKARU DCT ROGOP T457 LULOR/K0841F360 T693 ASGOR
Aircraft E140/M-SABDFGRW/S

Departure

Time 2026-04-26 16:41
Airport Khrabrovo Airport (UMKK)

Arrival

Time 2026-04-26 19:24
Airport Emperor Nicholas II Murmansk Airport (ULMM)
Time Latitude Longitude Altitude Speed Heading
2026-04-26 16:18 54.88614 20.58892 34 ft 0 kts 155°
2026-04-26 16:30 54.88609 20.58896 34 ft 1 kts 155°
2026-04-26 16:30 54.88599 20.58890 34 ft 1 kts 238°
2026-04-26 16:31 54.88592 20.58859 34 ft 3 kts 249°
2026-04-26 16:31 54.88606 20.58790 34 ft 9 kts 313°
2026-04-26 16:31 54.88693 20.58781 33 ft 14 kts 40°
2026-04-26 16:31 54.88743 20.58921 34 ft 12 kts 44°
2026-04-26 16:32 54.88765 20.58952 34 ft 1 kts 38°
2026-04-26 16:32 54.88770 20.58959 34 ft 0 kts 37°
2026-04-26 16:32 54.88775 20.58966 34 ft 2 kts 37°
2026-04-26 16:32 54.88776 20.58966 34 ft 0 kts 37°
2026-04-26 16:35 54.88776 20.58967 34 ft 0 kts 37°
2026-04-26 16:35 54.88795 20.58991 33 ft 7 kts 37°
2026-04-26 16:35 54.88848 20.59057 33 ft 10 kts 36°
2026-04-26 16:36 54.88857 20.59069 33 ft 0 kts 35°
2026-04-26 16:38 54.88868 20.59082 33 ft 4 kts 35°
2026-04-26 16:38 54.88929 20.59163 33 ft 21 kts 43°
2026-04-26 16:39 54.89044 20.59411 33 ft 28 kts 64°
2026-04-26 16:39 54.89147 20.59792 29 ft 38 kts 65°
2026-04-26 16:39 54.89253 20.60203 27 ft 29 kts 66°
2026-04-26 16:39 54.89324 20.60426 26 ft 2 kts 94°
2026-04-26 16:40 54.89307 20.60413 26 ft 3 kts 246°
2026-04-26 16:40 54.89295 20.60365 26 ft 4 kts 246°
2026-04-26 16:40 54.89279 20.60305 26 ft 6 kts 247°
2026-04-26 16:40 54.89207 20.60014 29 ft 58 kts 250°
2026-04-26 16:41 54.88957 20.59033 33 ft 117 kts 246°
2026-04-26 16:41 54.88581 20.57562 203 ft 139 kts 254°
2026-04-26 16:41 54.88203 20.55944 526 ft 146 kts 253°
2026-04-26 16:41 54.87860 20.54328 866 ft 149 kts 268°
2026-04-26 16:42 54.88171 20.52543 935 ft 175 kts 312°
2026-04-26 16:42 54.89329 20.51471 1039 ft 212 kts 342°
2026-04-26 16:42 54.90807 20.50578 1620 ft 229 kts 336°
2026-04-26 16:42 54.92251 20.49545 2572 ft 230 kts 335°
2026-04-26 16:43 54.93723 20.48445 3493 ft 234 kts 335°
2026-04-26 16:43 54.95201 20.47326 4292 ft 236 kts 335°
2026-04-26 16:43 54.96701 20.46184 5015 ft 239 kts 335°
2026-04-26 16:43 54.98211 20.45034 5847 ft 237 kts 335°
2026-04-26 16:44 54.99712 20.43888 6709 ft 237 kts 335°
2026-04-26 16:44 55.01209 20.42745 7687 ft 236 kts 335°
2026-04-26 16:44 55.02689 20.41614 8628 ft 236 kts 335°
2026-04-26 16:44 55.04185 20.40470 9517 ft 238 kts 336°
2026-04-26 16:45 55.05673 20.39330 10382 ft 239 kts 336°
2026-04-26 16:45 55.07207 20.38154 11025 ft 249 kts 336°
2026-04-26 16:45 55.08834 20.36907 11622 ft 260 kts 336°
2026-04-26 16:45 55.10507 20.35623 12206 ft 270 kts 337°
2026-04-26 16:46 55.12244 20.34289 12943 ft 274 kts 336°
2026-04-26 16:46 55.13977 20.32956 13750 ft 276 kts 336°
2026-04-26 16:46 55.15811 20.32078 14460 ft 279 kts 353°
2026-04-26 16:46 55.17777 20.31913 15129 ft 284 kts 354°
2026-04-26 16:47 55.19752 20.31731 15787 ft 287 kts 354°
2026-04-26 16:47 55.21730 20.31548 16422 ft 291 kts 354°
2026-04-26 16:47 55.23755 20.31363 17100 ft 291 kts 354°
2026-04-26 16:47 55.25727 20.31182 17905 ft 285 kts 353°
2026-04-26 16:48 55.27680 20.31002 18720 ft 278 kts 353°
2026-04-26 16:48 55.29559 20.30828 19533 ft 270 kts 352°
2026-04-26 16:48 55.31410 20.30656 20261 ft 264 kts 352°
2026-04-26 16:48 55.33229 20.30487 20773 ft 266 kts 352°
2026-04-26 16:49 55.35065 20.30317 21214 ft 267 kts 352°
2026-04-26 16:49 55.36964 20.30138 21277 ft 283 kts 352°
2026-04-26 16:49 55.39010 20.29947 21354 ft 298 kts 353°
2026-04-26 16:49 55.41071 20.29758 21676 ft 303 kts 353°
2026-04-26 16:50 55.43188 20.29562 22100 ft 305 kts 353°
2026-04-26 16:50 55.45306 20.29365 22481 ft 307 kts 353°
2026-04-26 16:50 55.47417 20.28949 22839 ft 306 kts 342°
2026-04-26 16:50 55.49338 20.27353 23251 ft 305 kts 332°
2026-04-26 16:51 55.51196 20.25590 23646 ft 304 kts 332°
2026-04-26 16:51 55.53068 20.23807 24021 ft 303 kts 332°
2026-04-26 16:51 55.54911 20.22048 24318 ft 305 kts 331°
2026-04-26 16:51 55.56766 20.20273 24566 ft 307 kts 331°
2026-04-26 16:52 55.58646 20.18458 24838 ft 308 kts 330°
2026-04-26 16:52 55.59894 20.17208 25024 ft 309 kts 331°
2026-04-26 16:52 55.62413 20.14839 25398 ft 311 kts 331°
2026-04-26 16:52 55.64319 20.13020 25734 ft 311 kts 331°
2026-04-26 16:53 55.66202 20.11213 26071 ft 311 kts 331°
2026-04-26 16:53 55.68111 20.09378 26409 ft 310 kts 331°
2026-04-26 16:53 55.69982 20.07574 26749 ft 310 kts 331°
2026-04-26 16:53 55.71865 20.05758 27099 ft 309 kts 331°
2026-04-26 16:54 55.73750 20.03936 27449 ft 308 kts 331°
2026-04-26 16:54 55.75642 20.02107 27809 ft 308 kts 331°
2026-04-26 16:54 55.77496 20.00311 28167 ft 307 kts 331°
2026-04-26 16:54 55.79339 19.98524 28893 ft 292 kts 332°
2026-04-26 16:55 55.80893 19.97015 30600 ft 241 kts 332°
2026-04-26 16:55 55.82307 19.95642 31075 ft 235 kts 332°
2026-04-26 16:55 55.83757 19.94234 31352 ft 240 kts 332°
2026-04-26 16:55 55.85228 19.92803 31824 ft 238 kts 332°
2026-04-26 16:56 55.88107 19.89999 32822 ft 235 kts 332°
2026-04-26 16:56 55.89524 19.88617 33124 ft 234 kts 332°
2026-04-26 16:56 55.90955 19.87220 33332 ft 236 kts 332°
2026-04-26 16:57 55.92409 19.85800 33534 ft 237 kts 331°
2026-04-26 16:57 55.93852 19.84389 33737 ft 238 kts 331°
2026-04-26 16:57 55.96668 19.81631 34577 ft 218 kts 331°
2026-04-26 16:58 55.97998 19.80327 34708 ft 222 kts 331°
2026-04-26 16:58 55.98897 19.79446 34736 ft 225 kts 331°
2026-04-26 16:58 56.02199 19.76202 34883 ft 237 kts 331°
2026-04-26 16:59 56.03653 19.74772 35078 ft 237 kts 331°
2026-04-26 16:59 56.06594 19.71876 35132 ft 248 kts 331°
2026-04-26 17:00 56.09677 19.68835 35125 ft 259 kts 331°
2026-04-26 17:00 56.12898 19.65650 35147 ft 271 kts 331°
2026-04-26 17:00 56.14558 19.64007 35149 ft 278 kts 331°
2026-04-26 17:01 56.16269 19.62312 35149 ft 285 kts 331°
2026-04-26 17:01 56.18017 19.60578 35148 ft 291 kts 331°
2026-04-26 17:01 56.19852 19.58987 35147 ft 298 kts 339°
2026-04-26 17:01 56.21906 19.58129 35152 ft 308 kts 349°
2026-04-26 17:02 56.24099 19.58153 35146 ft 324 kts
2026-04-26 17:02 56.26300 19.59281 35161 ft 335 kts
2026-04-26 17:02 56.30873 19.61404 35144 ft 344 kts
2026-04-26 17:03 56.35565 19.63446 35141 ft 354 kts
2026-04-26 17:03 56.40428 19.65545 35139 ft 363 kts
2026-04-26 17:04 56.45380 19.67685 35138 ft 371 kts
2026-04-26 17:04 56.50444 19.69879 35136 ft 379 kts
2026-04-26 17:05 56.55651 19.72141 35133 ft 383 kts
2026-04-26 17:05 56.60822 19.74393 35128 ft 384 kts
2026-04-26 17:06 56.66007 19.76658 35122 ft 386 kts
2026-04-26 17:06 56.71240 19.78950 35118 ft 386 kts
2026-04-26 17:07 56.75829 19.80964 35116 ft 385 kts
2026-04-26 17:08 56.84437 19.84305 35087 ft 382 kts
2026-04-26 17:08 56.89602 19.86938 35109 ft 382 kts
2026-04-26 17:09 56.92997 19.88524 35110 ft 380 kts
2026-04-26 17:09 56.99837 19.91592 35106 ft 381 kts
2026-04-26 17:10 57.04964 19.94094 35104 ft 383 kts
2026-04-26 17:10 57.10092 19.96612 35103 ft 383 kts
2026-04-26 17:11 57.15258 19.99155 35120 ft 385 kts
2026-04-26 17:11 57.20412 20.01702 35088 ft 382 kts
2026-04-26 17:12 57.28028 20.05476 35085 ft 376 kts
2026-04-26 17:13 57.35691 20.09290 35111 ft 380 kts
2026-04-26 17:14 57.42444 20.12665 35112 ft 378 kts
2026-04-26 17:14 57.50868 20.16893 35113 ft 379 kts
2026-04-26 17:15 57.58500 20.20741 35109 ft 379 kts
2026-04-26 17:16 57.63560 20.23302 35100 ft 379 kts
2026-04-26 17:16 57.68638 20.25879 35087 ft 379 kts
2026-04-26 17:17 57.73719 20.28466 35080 ft 379 kts
2026-04-26 17:17 57.78829 20.31074 35075 ft 379 kts
2026-04-26 17:18 57.83917 20.33679 35071 ft 379 kts
2026-04-26 17:18 57.88961 20.36269 35069 ft 379 kts
2026-04-26 17:19 57.96572 20.40191 35064 ft 379 kts
2026-04-26 17:19 58.01633 20.42808 35060 ft 379 kts
2026-04-26 17:20 58.05037 20.44574 35058 ft 379 kts
2026-04-26 17:20 58.11781 20.48081 35064 ft 380 kts
2026-04-26 17:21 58.16897 20.50750 35064 ft 381 kts
2026-04-26 17:21 58.21135 20.52968 35062 ft 381 kts
2026-04-26 17:22 58.27059 20.56077 35058 ft 380 kts
2026-04-26 17:22 58.32116 20.59134 35058 ft 386 kts 14°
2026-04-26 17:23 58.37064 20.62969 35055 ft 387 kts 14°
2026-04-26 17:23 58.42044 20.66829 35046 ft 387 kts 14°
2026-04-26 17:24 58.47003 20.70684 35042 ft 387 kts 15°
2026-04-26 17:24 58.51987 20.74571 35038 ft 388 kts 15°
2026-04-26 17:25 58.56952 20.78453 35035 ft 389 kts 15°
2026-04-26 17:25 58.61977 20.82397 35031 ft 390 kts 15°
2026-04-26 17:26 58.66129 20.85664 35028 ft 390 kts 15°
2026-04-26 17:26 58.71977 20.90279 35024 ft 391 kts 15°
2026-04-26 17:27 58.77008 20.94263 35022 ft 391 kts 15°
2026-04-26 17:27 58.82012 20.98239 35021 ft 391 kts 15°
2026-04-26 17:28 58.87045 21.02250 35017 ft 392 kts 15°
2026-04-26 17:28 58.92054 21.06255 35015 ft 392 kts 15°
2026-04-26 17:29 58.95387 21.08926 35013 ft 393 kts 15°
2026-04-26 17:29 59.02125 21.14346 35006 ft 394 kts 16°
2026-04-26 17:30 59.04478 21.17065 34999 ft 410 kts 32°
2026-04-26 17:30 59.06355 21.21423 35004 ft 432 kts 51°
2026-04-26 17:30 59.09017 21.32017 34987 ft 439 kts 54°
2026-04-26 17:31 59.11290 21.40840 35003 ft 438 kts 54°
2026-04-26 17:31 59.14464 21.53151 35004 ft 438 kts 54°
2026-04-26 17:32 59.16727 21.61970 34997 ft 438 kts 54°
2026-04-26 17:32 59.19888 21.74343 34986 ft 438 kts 55°
2026-04-26 17:33 59.22575 21.84914 34981 ft 438 kts 55°
2026-04-26 17:34 59.26613 22.00896 34978 ft 439 kts 55°
2026-04-26 17:34 59.29303 22.11606 34970 ft 440 kts 55°
2026-04-26 17:35 59.31976 22.22303 34954 ft 441 kts 56°
2026-04-26 17:35 59.34647 22.33045 34955 ft 442 kts 56°
2026-04-26 17:36 59.37322 22.43850 34968 ft 442 kts 56°
2026-04-26 17:36 59.39769 22.53787 34967 ft 442 kts 56°
2026-04-26 17:37 59.42094 22.63270 34965 ft 442 kts 56°
2026-04-26 17:37 59.44736 22.74093 34962 ft 443 kts 57°
2026-04-26 17:38 59.48703 22.90444 34959 ft 443 kts 57°
2026-04-26 17:38 59.51337 23.01373 34956 ft 443 kts 57°
2026-04-26 17:39 59.53958 23.12297 34943 ft 443 kts 58°
2026-04-26 17:39 59.56134 23.23691 34933 ft 450 kts 65°
2026-04-26 17:40 59.57386 23.31478 34926 ft 450 kts 65°
2026-04-26 17:40 59.59890 23.47160 34922 ft 455 kts 66°
2026-04-26 17:41 59.61775 23.59076 34910 ft 452 kts 66°
2026-04-26 17:41 59.63621 23.70812 34901 ft 447 kts 67°
2026-04-26 17:42 59.65140 23.80525 34899 ft 447 kts 67°
2026-04-26 17:42 59.66964 23.92265 34898 ft 451 kts 67°
2026-04-26 17:43 59.69088 24.06045 34892 ft 450 kts 67°
2026-04-26 17:43 59.70894 24.17847 34886 ft 451 kts 67°
2026-04-26 17:44 59.72692 24.29682 34883 ft 451 kts 68°
2026-04-26 17:44 59.74488 24.41582 34881 ft 451 kts 68°
2026-04-26 17:45 59.76108 24.53559 34872 ft 453 kts 70°
2026-04-26 17:45 59.77642 24.65586 34861 ft 453 kts 71°
2026-04-26 17:46 59.78926 24.75694 34858 ft 454 kts 71°
2026-04-26 17:46 59.80450 24.87786 34856 ft 454 kts 71°
2026-04-26 17:47 59.83626 25.13315 34844 ft 454 kts 71°
2026-04-26 17:48 59.85119 25.25474 34839 ft 454 kts 71°
2026-04-26 17:48 59.86591 25.37560 34836 ft 454 kts 72°
2026-04-26 17:49 59.88030 25.49474 34835 ft 454 kts 72°
2026-04-26 17:49 59.89488 25.61646 34835 ft 454 kts 72°
2026-04-26 17:50 59.90932 25.73805 34833 ft 455 kts 73°
2026-04-26 17:50 59.92372 25.86046 34832 ft 455 kts 73°
2026-04-26 17:51 59.93799 25.98273 34830 ft 455 kts 73°
2026-04-26 17:51 59.95221 26.10572 34830 ft 455 kts 73°
2026-04-26 17:52 59.96621 26.22793 34828 ft 455 kts 73°
2026-04-26 17:52 59.98015 26.35069 34825 ft 455 kts 73°
2026-04-26 17:53 59.99346 26.46893 34825 ft 455 kts 73°
2026-04-26 17:54 60.01397 26.65317 34824 ft 455 kts 75°
2026-04-26 17:54 60.02754 26.77651 34820 ft 455 kts 75°
2026-04-26 17:55 60.04092 26.89928 34812 ft 455 kts 75°
2026-04-26 17:55 60.05376 27.02374 34800 ft 457 kts 77°
2026-04-26 17:56 60.06461 27.14762 34784 ft 456 kts 77°
2026-04-26 17:57 60.08634 27.39701 34756 ft 457 kts 77°
2026-04-26 17:57 60.09705 27.52203 34754 ft 456 kts 78°
2026-04-26 17:58 60.11812 27.77233 34757 ft 457 kts 78°
2026-04-26 17:59 60.13363 27.96045 34758 ft 457 kts 79°
2026-04-26 17:59 60.14379 28.08553 34758 ft 457 kts 79°
2026-04-26 18:00 60.15389 28.21150 34743 ft 457 kts 79°
2026-04-26 18:00 60.16378 28.33643 34727 ft 457 kts 79°
2026-04-26 18:01 60.17363 28.46230 34714 ft 457 kts 79°
2026-04-26 18:01 60.18756 28.58565 34704 ft 454 kts 66°
2026-04-26 18:02 60.21162 28.67896 34697 ft 451 kts 54°
2026-04-26 18:02 60.23826 28.74276 34693 ft 448 kts 42°
2026-04-26 18:02 60.26166 28.78274 34694 ft 447 kts 38°
2026-04-26 18:03 60.30741 28.86802 34686 ft 448 kts 42°
2026-04-26 18:03 60.35187 28.95521 34683 ft 447 kts 43°
2026-04-26 18:04 60.39605 29.04252 34683 ft 448 kts 43°
2026-04-26 18:05 60.46254 29.17466 34681 ft 448 kts 43°
2026-04-26 18:05 60.50672 29.26347 34677 ft 449 kts 45°
2026-04-26 18:06 60.55384 29.34468 34679 ft 446 kts 30°
2026-04-26 18:06 60.60976 29.39872 34677 ft 445 kts 24°
2026-04-26 18:07 60.66429 29.45581 34674 ft 445 kts 26°
2026-04-26 18:07 60.71897 29.51485 34676 ft 446 kts 26°
2026-04-26 18:08 60.77361 29.57422 34669 ft 446 kts 26°
2026-04-26 18:08 60.82819 29.63376 34653 ft 446 kts 26°
2026-04-26 18:09 60.88268 29.69344 34643 ft 446 kts 27°
2026-04-26 18:09 60.93724 29.75344 34640 ft 446 kts 27°
2026-04-26 18:10 60.99168 29.81352 34645 ft 447 kts 27°
2026-04-26 18:10 61.04615 29.87389 34658 ft 446 kts 27°
2026-04-26 18:11 61.10069 29.93458 34668 ft 447 kts 27°
2026-04-26 18:11 61.15512 29.99537 34677 ft 446 kts 27°
2026-04-26 18:12 61.20962 30.05649 34685 ft 447 kts 27°
2026-04-26 18:12 61.26425 30.11799 34691 ft 447 kts 27°
2026-04-26 18:13 61.31869 30.17953 34693 ft 448 kts 27°
2026-04-26 18:13 61.37340 30.24162 34694 ft 449 kts 27°
2026-04-26 18:14 61.42799 30.30383 34695 ft 449 kts 27°
2026-04-26 18:14 61.48229 30.36595 34694 ft 449 kts 27°
2026-04-26 18:15 61.53687 30.42864 34683 ft 449 kts 27°
2026-04-26 18:15 61.59173 30.49191 34660 ft 449 kts 27°
2026-04-26 18:16 61.64603 30.55480 34651 ft 449 kts 27°
2026-04-26 18:16 61.72768 30.64982 34654 ft 449 kts 27°
2026-04-26 18:17 61.78229 30.71370 34656 ft 449 kts 28°
2026-04-26 18:17 61.83656 30.77746 34657 ft 450 kts 28°
2026-04-26 18:18 61.89106 30.84172 34657 ft 450 kts 28°
2026-04-26 18:18 61.94561 30.90634 34658 ft 450 kts 28°
2026-04-26 18:19 61.99997 30.97097 34661 ft 450 kts 28°
2026-04-26 18:19 62.05463 31.03625 34665 ft 450 kts 28°
2026-04-26 18:20 62.10887 31.10128 34673 ft 451 kts 28°
2026-04-26 18:20 62.15433 31.15601 34678 ft 451 kts 28°
2026-04-26 18:21 62.21766 31.23256 34671 ft 451 kts 28°
2026-04-26 18:21 62.27210 31.29865 34668 ft 451 kts 28°
2026-04-26 18:22 62.32650 31.36498 34678 ft 450 kts 29°
2026-04-26 18:22 62.38105 31.43176 34687 ft 450 kts 29°
2026-04-26 18:23 62.43492 31.49801 34687 ft 451 kts 29°
2026-04-26 18:23 62.48938 31.56525 34685 ft 451 kts 29°
2026-04-26 18:24 62.54326 31.63206 34684 ft 451 kts 29°
2026-04-26 18:24 62.59760 31.69973 34683 ft 451 kts 30°
2026-04-26 18:25 62.65174 31.76743 34683 ft 450 kts 30°
2026-04-26 18:25 62.70594 31.83550 34682 ft 450 kts 30°
2026-04-26 18:26 62.75979 31.90342 34682 ft 451 kts 30°
2026-04-26 18:26 62.81617 31.96252 34685 ft 451 kts 17°
2026-04-26 18:27 62.87749 31.98377 34686 ft 450 kts 360°
2026-04-26 18:27 62.93964 31.97407 34686 ft 450 kts 357°
2026-04-26 18:28 63.00155 31.96999 34682 ft 450 kts 358°
2026-04-26 18:28 63.06391 31.96698 34677 ft 449 kts 358°
2026-04-26 18:29 63.12636 31.96404 34677 ft 449 kts 358°
2026-04-26 18:29 63.18857 31.96111 34678 ft 449 kts 358°
2026-04-26 18:30 63.25106 31.95816 34678 ft 449 kts 358°
2026-04-26 18:30 63.31325 31.95520 34678 ft 449 kts 358°
2026-04-26 18:31 63.37511 31.95678 34678 ft 449 kts
2026-04-26 18:31 63.43772 31.95965 34677 ft 449 kts
2026-04-26 18:32 63.49982 31.96277 34677 ft 449 kts
2026-04-26 18:32 63.56205 31.96588 34679 ft 449 kts
2026-04-26 18:33 63.62421 31.96901 34683 ft 449 kts
2026-04-26 18:33 63.68656 31.97216 34687 ft 449 kts
2026-04-26 18:34 63.74881 31.97531 34692 ft 449 kts
2026-04-26 18:34 63.81119 31.97849 34695 ft 449 kts
2026-04-26 18:35 63.87304 31.98166 34699 ft 449 kts
2026-04-26 18:35 63.93553 31.98487 34703 ft 449 kts
2026-04-26 18:36 63.99773 31.98809 34708 ft 449 kts
2026-04-26 18:36 64.06002 31.99132 34711 ft 450 kts
2026-04-26 18:37 64.12263 31.99458 34713 ft 449 kts
2026-04-26 18:37 64.18492 31.99784 34715 ft 449 kts
2026-04-26 18:38 64.24717 32.00111 34717 ft 449 kts
2026-04-26 18:38 64.30926 32.00440 34720 ft 449 kts
2026-04-26 18:39 64.37176 32.00771 34724 ft 449 kts
2026-04-26 18:39 64.43412 32.01103 34727 ft 450 kts
2026-04-26 18:40 64.49607 32.01435 34732 ft 450 kts
2026-04-26 18:40 64.55844 32.01770 34736 ft 450 kts
2026-04-26 18:41 64.62101 32.02108 34740 ft 450 kts
2026-04-26 18:41 64.68319 32.02446 34745 ft 450 kts
2026-04-26 18:42 64.74557 32.02786 34755 ft 450 kts
2026-04-26 18:42 64.80838 32.03130 34763 ft 450 kts
2026-04-26 18:43 64.87096 32.03474 34773 ft 450 kts
2026-04-26 18:43 64.93316 32.03818 34780 ft 450 kts
2026-04-26 18:44 64.99584 32.04168 34784 ft 451 kts
2026-04-26 18:44 65.05819 32.04518 34787 ft 450 kts
2026-04-26 18:45 65.12082 32.04871 34788 ft 450 kts
2026-04-26 18:45 65.18295 32.05223 34790 ft 451 kts
2026-04-26 18:46 65.24532 32.05578 34791 ft 450 kts
2026-04-26 18:46 65.30807 32.05936 34793 ft 450 kts
2026-04-26 18:47 65.37054 32.06295 34797 ft 451 kts
2026-04-26 18:47 65.43282 32.06655 34800 ft 450 kts
2026-04-26 18:48 65.49507 32.07015 34803 ft 450 kts
2026-04-26 18:48 65.55742 32.07377 34807 ft 450 kts
2026-04-26 18:49 65.61989 32.07668 34810 ft 450 kts
2026-04-26 18:49 65.68216 32.07961 34815 ft 450 kts
2026-04-26 18:50 65.74486 32.08257 34817 ft 450 kts
2026-04-26 18:50 65.80701 32.08553 34818 ft 450 kts
2026-04-26 18:51 65.86932 32.08850 34818 ft 450 kts
2026-04-26 18:51 65.93182 32.09150 34819 ft 450 kts
2026-04-26 18:52 65.99432 32.09452 34818 ft 450 kts
2026-04-26 18:52 66.05666 32.09753 34819 ft 450 kts
2026-04-26 18:53 66.11917 32.10058 34820 ft 450 kts
2026-04-26 18:53 66.18134 32.10362 34818 ft 450 kts
2026-04-26 18:54 66.24362 32.10669 34812 ft 450 kts
2026-04-26 18:54 66.30637 32.10979 34808 ft 450 kts
2026-04-26 18:55 66.36869 32.11288 34812 ft 450 kts
2026-04-26 18:55 66.43016 32.13184 34818 ft 452 kts 13°
2026-04-26 18:56 66.49095 32.16977 34819 ft 451 kts 12°
2026-04-26 18:56 66.55181 32.20712 34820 ft 452 kts 12°
2026-04-26 18:57 66.60267 32.23844 34817 ft 452 kts 12°
2026-04-26 18:57 66.67352 32.28229 34813 ft 452 kts 12°
2026-04-26 18:58 66.73438 32.32016 34811 ft 451 kts 12°
2026-04-26 18:58 66.79501 32.35809 34810 ft 451 kts 12°
2026-04-26 18:59 66.85552 32.39613 34807 ft 452 kts 12°
2026-04-26 18:59 66.91663 32.43474 34804 ft 451 kts 12°
2026-04-26 19:00 66.97726 32.47322 34801 ft 451 kts 12°
2026-04-26 19:00 67.03758 32.51172 34796 ft 451 kts 12°
2026-04-26 19:01 67.09911 32.55118 34290 ft 462 kts 12°
2026-04-26 19:01 67.12986 32.57099 33883 ft 457 kts 12°
2026-04-26 19:01 67.16022 32.59060 33416 ft 447 kts 12°
2026-04-26 19:02 67.19022 32.61001 32571 ft 445 kts 12°
2026-04-26 19:02 67.21970 32.62915 31722 ft 440 kts 12°
2026-04-26 19:02 67.24872 32.64803 30860 ft 422 kts 12°
2026-04-26 19:02 67.26743 32.66023 30379 ft 421 kts 13°
2026-04-26 19:03 67.30503 32.68480 29446 ft 420 kts 13°
2026-04-26 19:03 67.33290 32.70307 28734 ft 412 kts 13°
2026-04-26 19:03 67.36027 32.72104 28256 ft 401 kts 13°
2026-04-26 19:03 67.38680 32.73851 27861 ft 394 kts 13°
2026-04-26 19:04 67.41359 32.75618 27464 ft 397 kts 13°
2026-04-26 19:04 67.44025 32.77364 27067 ft 400 kts 12°
2026-04-26 19:04 67.46742 32.78366 26655 ft 395 kts
2026-04-26 19:04 67.49470 32.78287 26213 ft 389 kts 357°
2026-04-26 19:05 67.54799 32.78021 25304 ft 382 kts 357°
2026-04-26 19:05 67.57442 32.77915 24833 ft 379 kts 357°
2026-04-26 19:05 67.60043 32.77814 24348 ft 376 kts 357°
2026-04-26 19:06 67.62640 32.77714 23854 ft 372 kts 357°
2026-04-26 19:06 67.65199 32.77616 23354 ft 368 kts 357°
2026-04-26 19:06 67.67735 32.77520 22843 ft 364 kts 357°
2026-04-26 19:06 67.70248 32.77423 22304 ft 360 kts 357°
2026-04-26 19:07 67.72731 32.77328 21764 ft 357 kts 357°
2026-04-26 19:07 67.75164 32.77235 21228 ft 354 kts 357°
2026-04-26 19:07 67.77603 32.77141 20691 ft 350 kts 357°
2026-04-26 19:07 67.80022 32.77047 20152 ft 346 kts 357°
2026-04-26 19:08 67.82384 32.76956 19617 ft 341 kts 357°
2026-04-26 19:08 67.84752 32.76864 18746 ft 344 kts 357°
2026-04-26 19:08 67.87111 32.76772 17673 ft 340 kts 358°
2026-04-26 19:08 67.89462 32.76680 16674 ft 341 kts 358°
2026-04-26 19:09 67.91786 32.76591 16116 ft 329 kts 357°
2026-04-26 19:09 67.94009 32.76505 15554 ft 319 kts 357°
2026-04-26 19:09 67.96220 32.76418 14983 ft 311 kts 357°
2026-04-26 19:09 67.98342 32.76337 14422 ft 306 kts 357°
2026-04-26 19:10 68.00479 32.76303 13863 ft 307 kts 358°
2026-04-26 19:10 68.02599 32.76271 13300 ft 304 kts 358°
2026-04-26 19:10 68.04668 32.76241 12744 ft 299 kts 357°
2026-04-26 19:10 68.06716 32.76210 12188 ft 293 kts 357°
2026-04-26 19:11 68.08722 32.76180 11634 ft 288 kts 357°
2026-04-26 19:11 68.10718 32.76150 11118 ft 282 kts 357°
2026-04-26 19:11 68.12643 32.76121 10676 ft 275 kts 357°
2026-04-26 19:11 68.14516 32.76093 10286 ft 267 kts 357°
2026-04-26 19:12 68.16341 32.76064 9945 ft 259 kts 358°
2026-04-26 19:12 68.18108 32.76037 9649 ft 251 kts 358°
2026-04-26 19:12 68.19834 32.76011 9364 ft 244 kts 358°
2026-04-26 19:12 68.21512 32.75986 9087 ft 240 kts 358°
2026-04-26 19:13 68.23202 32.75959 8830 ft 252 kts 358°
2026-04-26 19:13 68.24977 32.75932 8565 ft 253 kts 358°
2026-04-26 19:13 68.26705 32.75907 8302 ft 250 kts 358°
2026-04-26 19:13 68.28453 32.75880 8040 ft 249 kts 358°
2026-04-26 19:14 68.30168 32.75854 7783 ft 249 kts 358°
2026-04-26 19:14 68.31878 32.75828 7616 ft 245 kts 358°
2026-04-26 19:14 68.33602 32.75802 7487 ft 247 kts 358°
2026-04-26 19:14 68.34734 32.75784 7404 ft 248 kts 358°
2026-04-26 19:15 68.37027 32.76155 7126 ft 249 kts
2026-04-26 19:15 68.38721 32.77089 6866 ft 247 kts
2026-04-26 19:15 68.40372 32.78006 6606 ft 245 kts
2026-04-26 19:15 68.42033 32.78934 6345 ft 244 kts
2026-04-26 19:16 68.43704 32.79871 6081 ft 243 kts
2026-04-26 19:16 68.45338 32.80790 5821 ft 242 kts
2026-04-26 19:16 68.46994 32.81721 5555 ft 241 kts
2026-04-26 19:16 68.48614 32.82634 5295 ft 240 kts
2026-04-26 19:17 68.50261 32.83561 5041 ft 245 kts
2026-04-26 19:17 68.51929 32.84508 4782 ft 248 kts
2026-04-26 19:17 68.53598 32.85451 4456 ft 238 kts
2026-04-26 19:17 68.55180 32.86350 4180 ft 226 kts
2026-04-26 19:18 68.56654 32.87187 3927 ft 212 kts
2026-04-26 19:18 68.58085 32.87997 3677 ft 210 kts
2026-04-26 19:18 68.59513 32.88811 3417 ft 209 kts
2026-04-26 19:18 68.60911 32.89891 3159 ft 211 kts 27°
2026-04-26 19:19 68.61908 32.92712 2931 ft 204 kts 54°
2026-04-26 19:19 68.62668 32.95903 2497 ft 196 kts 53°
2026-04-26 19:19 68.63559 32.98567 2034 ft 185 kts 24°
2026-04-26 19:19 68.64731 32.98939 1795 ft 161 kts 340°
2026-04-26 19:20 68.65364 32.98138 1792 ft 146 kts 330°
2026-04-26 19:20 68.67517 32.94626 1783 ft 147 kts 327°
2026-04-26 19:20 68.68295 32.93243 1744 ft 119 kts 326°
2026-04-26 19:21 68.68961 32.92039 1715 ft 117 kts 325°
2026-04-26 19:21 68.69659 32.90767 1776 ft 126 kts 324°
2026-04-26 19:21 68.70426 32.89364 1803 ft 134 kts 324°
2026-04-26 19:21 68.71188 32.87974 1762 ft 131 kts 324°
2026-04-26 19:22 68.71952 32.86572 1596 ft 135 kts 324°
2026-04-26 19:22 68.72725 32.85158 1408 ft 129 kts 324°
2026-04-26 19:22 68.73461 32.83806 1236 ft 129 kts 325°
2026-04-26 19:22 68.74211 32.82427 1059 ft 130 kts 325°
2026-04-26 19:23 68.74966 32.81044 873 ft 128 kts 325°
2026-04-26 19:23 68.75709 32.79676 691 ft 128 kts 324°
2026-04-26 19:23 68.76445 32.78320 511 ft 128 kts 324°
2026-04-26 19:23 68.77180 32.76948 322 ft 127 kts 324°
2026-04-26 19:24 68.77420 32.76497 284 ft 125 kts 325°
2026-04-26 19:24 68.78390 32.74697 264 ft 8 kts 326°
2026-04-26 19:25 68.78427 32.74615 264 ft 2 kts 268°
2026-04-26 19:25 68.78416 32.74615 264 ft 3 kts 145°
2026-04-26 19:25 68.78384 32.74704 264 ft 6 kts 139°
2026-04-26 19:25 68.78340 32.74810 264 ft 9 kts 139°
2026-04-26 19:26 68.78307 32.74985 264 ft 11 kts 85°
2026-04-26 19:26 68.78333 32.75117 264 ft 0 kts 57°
2026-04-26 19:26 68.78341 32.75151 264 ft 6 kts 57°
2026-04-26 19:27 68.78372 32.75284 264 ft 9 kts 56°
2026-04-26 19:27 68.78414 32.75442 264 ft 10 kts 42°
2026-04-26 19:27 68.78442 32.75533 263 ft 2 kts 61°
2026-04-26 19:27 68.78472 32.75393 264 ft 1 kts 140°